KRP701 LRTR-LGSK

Flight info

Callsign KRP701
Flight time 1h 8m
Altitude 39000
Route MAVIT N188 OKLOP L617 TSL
Aircraft A319/M-SDE3FGHIRWY/LB1

Departure

Time 2026-04-24 15:40
Airport Timișoara Traian Vuia International Airport (LRTR)

Arrival

Time 2026-04-24 16:48
Airport Skiathos Island National Airport (LGSK)
Time Latitude Longitude Altitude Speed Heading
2026-04-24 15:21 45.81137 21.32282 342 ft 0 kts 345°
2026-04-24 15:28 45.81094 21.32296 351 ft 2 kts 33°
2026-04-24 15:29 45.81086 21.32264 349 ft 1 kts 108°
2026-04-24 15:30 45.81086 21.32263 349 ft 0 kts 109°
2026-04-24 15:32 45.81055 21.32387 342 ft 8 kts 110°
2026-04-24 15:33 45.81056 21.32653 342 ft 11 kts 109°
2026-04-24 15:33 45.80942 21.33104 342 ft 19 kts 110°
2026-04-24 15:34 45.80864 21.33423 346 ft 13 kts 102°
2026-04-24 15:35 45.80921 21.33543 344 ft 3 kts 20°
2026-04-24 15:35 45.81004 21.33612 345 ft 12 kts 67°
2026-04-24 15:35 45.80992 21.33745 347 ft 15 kts 108°
2026-04-24 15:36 45.80958 21.33883 345 ft 15 kts 110°
2026-04-24 15:36 45.80881 21.34192 337 ft 18 kts 109°
2026-04-24 15:36 45.80838 21.34366 336 ft 19 kts 109°
2026-04-24 15:37 45.80793 21.34544 339 ft 18 kts 109°
2026-04-24 15:37 45.80749 21.34716 344 ft 18 kts 110°
2026-04-24 15:37 45.80707 21.34879 350 ft 17 kts 110°
2026-04-24 15:37 45.80668 21.35038 346 ft 17 kts 111°
2026-04-24 15:38 45.80628 21.35200 345 ft 17 kts 110°
2026-04-24 15:38 45.80587 21.35361 347 ft 18 kts 110°
2026-04-24 15:38 45.80544 21.35531 347 ft 18 kts 109°
2026-04-24 15:38 45.80500 21.35704 345 ft 19 kts 109°
2026-04-24 15:39 45.80502 21.35849 341 ft 12 kts 102°
2026-04-24 15:39 45.80471 21.35853 342 ft 4 kts 237°
2026-04-24 15:39 45.80474 21.35812 342 ft 4 kts 290°
2026-04-24 15:39 45.80476 21.35804 342 ft 0 kts 290°
2026-04-24 15:40 45.80489 21.35750 350 ft 27 kts 289°
2026-04-24 15:40 45.80644 21.35135 347 ft 101 kts 290°
2026-04-24 15:40 45.80952 21.33908 361 ft 156 kts 290°
2026-04-24 15:40 45.81324 21.32457 1027 ft 154 kts 290°
2026-04-24 15:41 45.81637 21.30991 1755 ft 155 kts 275°
2026-04-24 15:41 45.81397 21.29464 2307 ft 170 kts 240°
2026-04-24 15:41 45.80363 21.28425 2656 ft 201 kts 200°
2026-04-24 15:41 45.78922 21.27869 3021 ft 228 kts 197°
2026-04-24 15:42 45.77300 21.27291 3537 ft 253 kts 196°
2026-04-24 15:42 45.75542 21.26677 4346 ft 265 kts 195°
2026-04-24 15:42 45.73733 21.26042 5331 ft 270 kts 196°
2026-04-24 15:42 45.71898 21.25392 6349 ft 274 kts 196°
2026-04-24 15:43 45.70032 21.24722 7281 ft 279 kts 196°
2026-04-24 15:43 45.68130 21.24031 8163 ft 286 kts 197°
2026-04-24 15:43 45.66181 21.23324 9040 ft 292 kts 197°
2026-04-24 15:43 45.64186 21.22596 9908 ft 300 kts 197°
2026-04-24 15:44 45.62117 21.21841 10437 ft 318 kts 197°
2026-04-24 15:44 45.59902 21.21028 10869 ft 337 kts 197°
2026-04-24 15:44 45.57605 21.20191 11596 ft 344 kts 196°
2026-04-24 15:44 45.55262 21.19344 12386 ft 350 kts 196°
2026-04-24 15:45 45.52890 21.18487 13173 ft 355 kts 196°
2026-04-24 15:45 45.50480 21.17616 13936 ft 360 kts 196°
2026-04-24 15:45 45.48038 21.16733 14599 ft 365 kts 196°
2026-04-24 15:45 45.45561 21.15833 15263 ft 370 kts 195°
2026-04-24 15:46 45.43010 21.15112 15910 ft 377 kts 186°
2026-04-24 15:46 45.40373 21.15033 16549 ft 382 kts 178°
2026-04-24 15:46 45.37702 21.15126 17203 ft 387 kts 178°
2026-04-24 15:46 45.34990 21.15213 17858 ft 392 kts 178°
2026-04-24 15:47 45.32250 21.15298 18472 ft 397 kts 178°
2026-04-24 15:47 45.29471 21.15379 19044 ft 401 kts 178°
2026-04-24 15:47 45.26669 21.15459 19640 ft 404 kts 178°
2026-04-24 15:47 45.23844 21.15541 20237 ft 408 kts 178°
2026-04-24 15:48 45.20991 21.15621 20819 ft 412 kts 178°
2026-04-24 15:48 45.19088 21.15675 21210 ft 414 kts 178°
2026-04-24 15:48 45.16192 21.15759 21791 ft 418 kts 178°
2026-04-24 15:48 45.13232 21.15844 22381 ft 422 kts 178°
2026-04-24 15:49 45.10283 21.15930 22954 ft 426 kts 178°
2026-04-24 15:49 45.07348 21.16014 23523 ft 429 kts 178°
2026-04-24 15:49 45.04311 21.16101 24012 ft 433 kts 178°
2026-04-24 15:49 45.01293 21.16187 24496 ft 435 kts 177°
2026-04-24 15:50 44.98250 21.16277 24973 ft 438 kts 177°
2026-04-24 15:50 44.95195 21.16368 25442 ft 441 kts 177°
2026-04-24 15:50 44.92123 21.16458 25904 ft 443 kts 177°
2026-04-24 15:50 44.89029 21.16549 26359 ft 446 kts 177°
2026-04-24 15:51 44.85956 21.16639 26796 ft 449 kts 177°
2026-04-24 15:51 44.82826 21.16731 27234 ft 451 kts 177°
2026-04-24 15:51 44.79638 21.16823 27677 ft 454 kts 177°
2026-04-24 15:51 44.76512 21.16918 28106 ft 456 kts 176°
2026-04-24 15:52 44.73315 21.17410 28539 ft 456 kts 167°
2026-04-24 15:52 44.70203 21.18316 28972 ft 458 kts 166°
2026-04-24 15:52 44.67070 21.19230 29387 ft 461 kts 166°
2026-04-24 15:52 44.63958 21.20129 29804 ft 464 kts 166°
2026-04-24 15:53 44.60748 21.21049 30197 ft 466 kts 166°
2026-04-24 15:53 44.57554 21.21960 30542 ft 469 kts 166°
2026-04-24 15:53 44.54356 21.22874 30883 ft 471 kts 166°
2026-04-24 15:53 44.51178 21.23785 31224 ft 473 kts 166°
2026-04-24 15:54 44.47951 21.24714 31564 ft 474 kts 165°
2026-04-24 15:54 44.44715 21.25644 31984 ft 474 kts 165°
2026-04-24 15:54 44.41448 21.26582 32482 ft 472 kts 165°
2026-04-24 15:54 44.38233 21.27502 32969 ft 471 kts 165°
2026-04-24 15:55 44.35022 21.28415 33450 ft 470 kts 165°
2026-04-24 15:55 44.31830 21.29321 33941 ft 468 kts 165°
2026-04-24 15:55 44.28641 21.30229 34370 ft 467 kts 165°
2026-04-24 15:55 44.25461 21.31135 34764 ft 466 kts 165°
2026-04-24 15:56 44.22291 21.32035 35158 ft 464 kts 165°
2026-04-24 15:56 44.19144 21.32997 35530 ft 461 kts 161°
2026-04-24 15:56 44.16133 21.34471 35892 ft 456 kts 153°
2026-04-24 15:56 44.13227 21.36227 36235 ft 455 kts 153°
2026-04-24 15:57 44.10321 21.37974 36580 ft 455 kts 153°
2026-04-24 15:57 44.07414 21.39713 36914 ft 454 kts 153°
2026-04-24 15:57 44.04515 21.41438 37229 ft 453 kts 153°
2026-04-24 15:57 44.01617 21.43157 37551 ft 453 kts 153°
2026-04-24 15:58 43.98720 21.44875 37867 ft 452 kts 153°
2026-04-24 15:58 43.95832 21.46596 38164 ft 452 kts 153°
2026-04-24 15:58 43.92950 21.48314 38462 ft 451 kts 153°
2026-04-24 15:58 43.90068 21.50030 38731 ft 450 kts 154°
2026-04-24 15:59 43.87186 21.51742 38920 ft 451 kts 154°
2026-04-24 15:59 43.84300 21.53457 38996 ft 451 kts 154°
2026-04-24 15:59 43.78530 21.56894 39001 ft 451 kts 154°
2026-04-24 16:00 43.72759 21.60321 38998 ft 451 kts 154°
2026-04-24 16:00 43.66964 21.63671 39011 ft 452 kts 156°
2026-04-24 16:01 43.61035 21.66570 38989 ft 453 kts 159°
2026-04-24 16:01 43.55043 21.69262 38997 ft 453 kts 159°
2026-04-24 16:02 43.49065 21.72007 39005 ft 453 kts 158°
2026-04-24 16:02 43.43108 21.74829 39012 ft 453 kts 158°
2026-04-24 16:03 43.37148 21.77656 39014 ft 453 kts 158°
2026-04-24 16:03 43.31177 21.80464 39013 ft 454 kts 158°
2026-04-24 16:04 43.25202 21.83269 39019 ft 454 kts 158°
2026-04-24 16:04 43.19232 21.86078 39017 ft 454 kts 158°
2026-04-24 16:05 43.10273 21.90267 39021 ft 453 kts 158°
2026-04-24 16:06 43.01320 21.94425 39020 ft 453 kts 158°
2026-04-24 16:07 42.92376 21.98574 39015 ft 452 kts 158°
2026-04-24 16:07 42.83442 22.02725 39016 ft 452 kts 158°
2026-04-24 16:08 42.74506 22.06827 39019 ft 452 kts 158°
2026-04-24 16:09 42.65512 22.10689 39017 ft 453 kts 161°
2026-04-24 16:09 42.59449 22.13015 39015 ft 453 kts 161°
2026-04-24 16:11 42.44347 22.18934 39015 ft 451 kts 161°
2026-04-24 16:11 42.38323 22.21326 39015 ft 451 kts 161°
2026-04-24 16:12 42.29245 22.24666 39003 ft 452 kts 168°
2026-04-24 16:13 42.19939 22.26849 38999 ft 452 kts 167°
2026-04-24 16:14 42.07525 22.29775 38992 ft 453 kts 167°
2026-04-24 16:14 41.98213 22.31961 38990 ft 453 kts 168°
2026-04-24 16:15 41.88905 22.34135 38985 ft 453 kts 168°
2026-04-24 16:16 41.79594 22.36302 38981 ft 453 kts 168°
2026-04-24 16:17 41.64074 22.39910 38980 ft 453 kts 168°
2026-04-24 16:18 41.51653 22.42790 38983 ft 453 kts 168°
2026-04-24 16:19 41.42303 22.44947 38984 ft 452 kts 168°
2026-04-24 16:20 41.32994 22.47080 38981 ft 452 kts 168°
2026-04-24 16:20 41.23692 22.49205 38979 ft 452 kts 168°
2026-04-24 16:21 41.14412 22.51435 38981 ft 451 kts 163°
2026-04-24 16:22 41.08702 22.54670 38984 ft 447 kts 149°
2026-04-24 16:22 41.00474 22.60548 38978 ft 448 kts 150°
2026-04-24 16:23 40.94986 22.64429 38979 ft 448 kts 150°
2026-04-24 16:24 40.86748 22.70257 38978 ft 447 kts 150°
2026-04-24 16:24 40.81240 22.74158 38184 ft 454 kts 150°
2026-04-24 16:24 40.78452 22.76126 37495 ft 454 kts 149°
2026-04-24 16:25 40.75664 22.78087 36834 ft 454 kts 149°
2026-04-24 16:25 40.73825 22.79378 36513 ft 451 kts 149°
2026-04-24 16:25 40.71176 22.81240 36042 ft 447 kts 148°
2026-04-24 16:26 40.65817 22.85009 35034 ft 440 kts 148°
2026-04-24 16:26 40.63121 22.86902 34512 ft 437 kts 147°
2026-04-24 16:26 40.57786 22.90642 33431 ft 431 kts 147°
2026-04-24 16:27 40.55147 22.92487 32928 ft 426 kts 147°
2026-04-24 16:27 40.52545 22.94304 32430 ft 422 kts 146°
2026-04-24 16:27 40.49966 22.96104 31934 ft 418 kts 146°
2026-04-24 16:27 40.47405 22.97889 31449 ft 414 kts 146°
2026-04-24 16:28 40.44813 22.99533 30973 ft 415 kts 152°
2026-04-24 16:28 40.42130 23.00877 30499 ft 412 kts 153°
2026-04-24 16:28 40.36815 23.03522 29549 ft 404 kts 152°
2026-04-24 16:29 40.34203 23.04820 29102 ft 398 kts 153°
2026-04-24 16:29 40.31629 23.06098 28672 ft 394 kts 153°
2026-04-24 16:29 40.26579 23.08602 27837 ft 386 kts 153°
2026-04-24 16:30 40.21593 23.11081 27003 ft 381 kts 153°
2026-04-24 16:30 40.19128 23.12304 26571 ft 378 kts 154°
2026-04-24 16:30 40.16675 23.13520 26138 ft 376 kts 154°
2026-04-24 16:31 40.14238 23.14727 25694 ft 373 kts 154°
2026-04-24 16:31 40.11814 23.15928 25243 ft 372 kts 155°
2026-04-24 16:31 40.09405 23.17122 24791 ft 370 kts 155°
2026-04-24 16:31 40.07000 23.18309 24328 ft 369 kts 155°
2026-04-24 16:32 40.04602 23.19488 23866 ft 367 kts 156°
2026-04-24 16:32 40.02216 23.20661 23366 ft 367 kts 156°
2026-04-24 16:32 39.99833 23.21834 22871 ft 364 kts 156°
2026-04-24 16:32 39.97476 23.22994 22425 ft 361 kts 156°
2026-04-24 16:33 39.95136 23.24147 21981 ft 358 kts 157°
2026-04-24 16:33 39.92811 23.25291 21535 ft 356 kts 157°
2026-04-24 16:33 39.90500 23.26424 21103 ft 354 kts 158°
2026-04-24 16:33 39.88204 23.27549 20670 ft 352 kts 158°
2026-04-24 16:34 39.85919 23.28670 20244 ft 350 kts 158°
2026-04-24 16:34 39.83649 23.29785 19817 ft 348 kts 158°
2026-04-24 16:34 39.81386 23.30898 19392 ft 347 kts 158°
2026-04-24 16:34 39.79133 23.32005 18971 ft 346 kts 159°
2026-04-24 16:35 39.76886 23.33106 18554 ft 345 kts 159°
2026-04-24 16:35 39.74637 23.34203 18117 ft 345 kts 159°
2026-04-24 16:35 39.72400 23.35292 17681 ft 343 kts 159°
2026-04-24 16:35 39.70173 23.36375 17270 ft 340 kts 159°
2026-04-24 16:36 39.67963 23.37450 16867 ft 338 kts 159°
2026-04-24 16:36 39.65769 23.38523 16469 ft 336 kts 159°
2026-04-24 16:36 39.63590 23.39588 16081 ft 334 kts 159°
2026-04-24 16:36 39.61422 23.40648 15700 ft 332 kts 159°
2026-04-24 16:37 39.59266 23.41700 15312 ft 330 kts 159°
2026-04-24 16:37 39.57116 23.42748 14936 ft 329 kts 159°
2026-04-24 16:37 39.54978 23.43788 14564 ft 328 kts 159°
2026-04-24 16:37 39.52849 23.44818 14176 ft 326 kts 159°
2026-04-24 16:38 39.50725 23.45845 13795 ft 325 kts 159°
2026-04-24 16:38 39.48612 23.46865 13380 ft 323 kts 159°
2026-04-24 16:38 39.46513 23.47879 12999 ft 321 kts 159°
2026-04-24 16:38 39.44429 23.48886 12616 ft 318 kts 159°
2026-04-24 16:39 39.42417 23.49859 12242 ft 316 kts 159°
2026-04-24 16:39 39.40359 23.50853 11858 ft 315 kts 159°
2026-04-24 16:39 39.38289 23.51853 11462 ft 313 kts 159°
2026-04-24 16:39 39.36254 23.52836 11073 ft 311 kts 159°
2026-04-24 16:40 39.34255 23.53803 10685 ft 310 kts 159°
2026-04-24 16:40 39.32237 23.54780 10285 ft 309 kts 159°
2026-04-24 16:40 39.30200 23.55763 9883 ft 308 kts 159°
2026-04-24 16:40 39.28194 23.56728 9437 ft 307 kts 159°
2026-04-24 16:41 39.26200 23.57687 9033 ft 304 kts 159°
2026-04-24 16:41 39.24225 23.58634 8619 ft 302 kts 159°
2026-04-24 16:41 39.22260 23.59574 8201 ft 300 kts 159°
2026-04-24 16:41 39.20307 23.60506 7784 ft 298 kts 160°
2026-04-24 16:42 39.18278 23.60975 7352 ft 298 kts 181°
2026-04-24 16:42 39.16271 23.60416 6913 ft 295 kts 205°
2026-04-24 16:42 39.14440 23.59232 6473 ft 294 kts 208°
2026-04-24 16:42 39.12621 23.58035 6015 ft 293 kts 208°
2026-04-24 16:43 39.10814 23.56853 5573 ft 291 kts 208°
2026-04-24 16:43 39.09018 23.55681 5125 ft 288 kts 208°
2026-04-24 16:43 39.07237 23.54520 4694 ft 286 kts 207°
2026-04-24 16:43 39.05480 23.53375 4240 ft 279 kts 207°
2026-04-24 16:44 39.03790 23.52275 3844 ft 266 kts 208°
2026-04-24 16:44 39.02390 23.50886 3543 ft 246 kts 238°
2026-04-24 16:44 39.01959 23.48897 3313 ft 225 kts 278°
2026-04-24 16:44 39.02606 23.47207 3095 ft 207 kts 320°
2026-04-24 16:45 39.03866 23.46461 2893 ft 199 kts 354°
2026-04-24 16:45 39.05202 23.46658 2716 ft 190 kts 13°
2026-04-24 16:45 39.06473 23.47031 2491 ft 184 kts 13°
2026-04-24 16:45 39.07687 23.47390 2299 ft 174 kts 13°
2026-04-24 16:46 39.08824 23.47725 2116 ft 161 kts 13°
2026-04-24 16:46 39.09863 23.48027 1912 ft 146 kts 13°
2026-04-24 16:46 39.10820 23.48298 1658 ft 135 kts 13°
2026-04-24 16:46 39.11720 23.48553 1424 ft 131 kts 13°
2026-04-24 16:47 39.12601 23.48802 1200 ft 129 kts 13°
2026-04-24 16:47 39.13476 23.49050 975 ft 129 kts 13°
2026-04-24 16:47 39.14349 23.49299 764 ft 128 kts 12°
2026-04-24 16:47 39.15232 23.49411 508 ft 129 kts 357°
2026-04-24 16:48 39.16098 23.49658 253 ft 126 kts 18°
2026-04-24 16:48 39.16936 23.50025 72 ft 126 kts 16°
2026-04-24 16:48 39.17685 23.50355 58 ft 83 kts 19°
2026-04-24 16:48 39.17917 23.50455 69 ft 11 kts
2026-04-24 16:49 39.17945 23.50385 69 ft 10 kts 263°
2026-04-24 16:49 39.17889 23.50307 61 ft 15 kts 200°
2026-04-24 16:49 39.17820 23.50266 55 ft 10 kts 237°
2026-04-24 16:49 39.17831 23.50200 56 ft 0 kts 291°
2026-04-24 16:50 39.17832 23.50197 61 ft 0 kts 291°